AirNav   Air Wisconsin pilot careers
 
 342 users online  

63OH White's Airport
Darbyville, Ohio, USA

GOING TO DARBYVILLE?


FAA INFORMATION EFFECTIVE 21 JUNE 2018

Location

FAA Identifier: 63OH
Lat/Long: 39-42-10.2230N / 083-05-38.0000W
39-42.170383N / 083-05.633333W
39.7028397 / -83.0938889
(estimated)
Elevation: 815 ft. / 248 m (estimated)
Variation: 05W (1990)
From city: 1 mile NE of DARBYVILLE, OH
Time zone: UTC -4 (UTC -5 during Standard Time)
Zip code: 43113

Airport Operations

Airport use: Private use. Permission required prior to landing
Activation date: 10/1994
Control tower: no
ARTCC: INDIANAPOLIS CENTER
FSS: DAYTON FLIGHT SERVICE STATION
Attendance: UNATNDD
Wind indicator: yes
Segmented circle: no

Airport Communications

WX AWOS-3 at LCK (10 nm NE): 132.750 (614-492-2441)
WX AWOS-3 at TZR (12 nm N): 135.925 (614-878-1722)
WX AWOS-3 at RZT (16 nm S): 119.225 (740-779-1364)
WX AWOS-3PT at I23 (17 nm SW): 118.775
WX ASOS at CMH (20 nm NE): 124.6 (614-338-4083)

Nearby radio navigation aids

VOR radial/distance  VOR name  Freq  Var
XUBr338/(11.8)YELLOW BUD VOR112.5005W
SGHr107/35.6SPRINGFIELD VOR/DME113.2004W
APEr227/35.6APPLETON VORTAC116.7006W
MXQr067/36.6MIDWEST VOR/DME112.9004W

 
NDB name  Hdg/Dist  Freq  Var  ID
COBBS242/4.225307WDD -.. -..
BOUTN149/8.723005WBU -... ..-
COURT HOUSE072/15.141406WCSS -.-. ... ...
WAVERLY353/33.038506WEOP . --- .--.
CLARK COUNTY112/33.234104WCCJ -.-. -.-. .---
NEWARK242/34.952406WHEH .... . ....
HILLSBORO039/37.427805WHOC .... --- -.-.

Airport Services

Runway Information

Runway 15/33

Dimensions: 2800 x 75 ft. / 853 x 23 m
Surface: turf
RUNWAY 15  RUNWAY 33
Traffic pattern: leftleft
Obstructions: none30 ft. plines, 600 ft. from runway

Airport Ownership and Management from official FAA records

Ownership: Privately-owned
Owner: SCOTT WHITE
8187 ST RT 316 WEST
ORIENT, OH 43146
Phone 740-983-3907
Manager: SCOTT WHITE
8187 ST RT 316 WEST
ORIENT, OH 43146
Phone 740-983-3907

Instrument Procedures

There are no published instrument procedures at 63OH.

Some nearby airports with instrument procedures:

KLCK - Rickenbacker International Airport (10 nm NE)
KTZR - Bolton Field Airport (12 nm N)
KCYO - Pickaway County Memorial Airport (12 nm SE)
KRZT - Ross County Airport (16 nm S)
I23 - Fayette County Airport (17 nm SW)
KCMH - John Glenn Columbus International Airport (20 nm NE)
 
Loc | Ops | Rwys | IFR | FBO | Links
Com | Nav | Svcs | Stats | Notes

AirNav Hotels Sweepstakes
 
Area around 63OH (White's Airport)
 
Road maps at: MapQuest Bing Google
 
Aerial photo
No photo
 
Sectional chart

 
Airport distance calculator
Flying to White's Airport? Find the distance to fly.

From to 63OH

Sunrise and sunset
Times for 22-Jun-2018
 Local
(UTC-4)
 Zulu
(UTC)
Morning civil twilight05:3309:33
Sunrise06:0610:06
Sunset21:0301:03
Evening civil twilight21:3501:35

Current date and time
Zulu (UTC)  22-Jun-2018 09:22:13
Local (UTC-4)  22-Jun-2018 05:22:13
 
METAR
KLCK 
11nm NE 
220855Z AUTO 09005KT 10SM OVC009 20/20 A2972 RMK AO2 T02010202
KTZR 
11nm N 
220855Z AUTO 10004KT 5SM BR OVC004 21/20 A2973 RMK AO2 60004 T02050204
KRZT 
16nm S 
220855Z AUTO 00000KT 10SM OVC003 20/20 A2972 RMK AO2
KLHQ 
20nm E 
220853Z AUTO 12003KT 9SM OVC004 21/21 A2973 RMK AO2 SLP061 T02110206 56010 $
KCMH 
20nm NE 
220851Z 09005KT 5SM -RA BR BKN007 BKN020 OVC026 21/19 A2972 RMK AO2 RAE03B34DZB06E34 SLP058 P0002 60003 T02060194 56010 $
TAF
KLCK 
11nm NE 
220709Z 2207/2306 09006KT P6SM -RA OVC005 FM220900 11006KT 6SM -SHRA OVC005 TEMPO 2209/2210 4SM TSRA OVC015CB FM221000 12006KT 6SM -SHRA OVC015 TEMPO 2210/2214 4SM TSRA OVC009CB FM221400 16007KT 6SM -SHRA VCTS OVC015CB FM221800 18008KT P6SM -SHRA VCTS OVC050CB FM230300 19007KT P6SM BKN040
NOTAMs
Click for the latest NOTAMs
NOTAMs are issued by the DoD/FAA and will open in a separate window not controlled by AirNav.

 

 
 

Would you like to see your business listed on this page?

 If your business provides an interesting product or service to pilots, flight crews, aircraft, or users of the White's Airport, you should consider listing it here.  To start the listing process, click on the button below
 
Add a business
 

Other Pages about White's Airport

Update a link
 
Copyright © AirNav, LLC. All rights reserved. Privacy Policy  Contact